Location: Sceptre
(50.8619°N, 109.2670°W)
Time: 23:43:02
(UTC+00:00)

Envisat - Pass Details

Date: 26 January 2022
Orbit: 764 x 765 km, 98.2° (Epoch: 22 May)

Event Time Altitude Azimuth Distance (km) Brightness Sun altitude
Rises 10:57:29 0° 26° (NNE) 3,243 6.8 -38.1°
Reaches altitude 10° 11:00:32 10° 45° (NE) 2,311 6.1 -37.6°
Maximum altitude 11:04:00 18° 88° (E) 1,797 5.5 -37.1°
Drops below altitude 10° 11:07:29 10° 132° (SE) 2,300 5.8 -36.6°
Sets 11:10:29 0° 151° (SSE) 3,221 6.4 -36.1°
